timestamp,surface_pressure_avg,surface_temp_avg,battery_voltage,lat,long
2018-08-20 00:00:00+00:00,229.2414,18.0,13.13,47.84626,-54.09684
2018-08-20 00:10:00+00:00,231.9947,18.0,13.05,47.84626,-54.09684
2018-08-20 00:20:00+00:00,227.9048,18.0,13.13,47.84626,-54.09684
2018-08-20 00:30:00+00:00,227.4864,18.02,13.13,47.84626,-54.09684
2018-08-20 00:40:00+00:00,232.1348,18.02,13.13,47.84626,-54.09684
2018-08-20 00:50:00+00:00,231.0998,18.04,13.13,47.84626,-54.09684
2018-08-20 01:00:00+00:00,232.4281,18.09,13.05,47.84626,-54.09684
2018-08-20 01:10:00+00:00,236.2114,18.1,12.97,47.84626,-54.09684
2018-08-20 01:20:00+00:00,236.2498,18.09,13.05,47.84626,-54.09684
2018-08-20 01:30:00+00:00,234.748,18.0,13.05,47.84626,-54.09684
2018-08-20 01:40:00+00:00,235.8014,17.9,13.13,47.84626,-54.09684
2018-08-20 01:50:00+00:00,235.5814,17.96,13.13,47.84626,-54.09684
2018-08-20 02:00:00+00:00,234.0182,18.0,13.05,47.84626,-54.09684
2018-08-20 02:10:00+00:00,232.9633,18.0,12.97,47.84626,-54.09684
2018-08-20 02:20:00+00:00,232.5898,18.0,13.05,47.84626,-54.09684
2018-08-20 02:30:00+00:00,232.7447,18.0,13.05,47.84626,-54.09684
2018-08-20 02:40:00+00:00,231.4097,17.99,13.05,47.84626,-54.09684
2018-08-20 02:50:00+00:00,232.8247,17.99,13.13,47.84626,-54.09684
2018-08-20 03:00:00+00:00,235.8915,17.99,13.05,47.84626,-54.09684
2018-08-20 03:10:00+00:00,237.3031,18.0,12.97,47.84626,-54.09684
2018-08-20 03:20:00+00:00,241.0914,18.0,13.05,47.84626,-54.09684
2018-08-20 03:30:00+00:00,247.8347,18.0,13.05,47.84626,-54.09684
2018-08-20 03:40:00+00:00,253.4614,18.0,13.05,47.84626,-54.09684
2018-08-20 03:50:00+00:00,255.1114,17.98,13.05,47.84626,-54.09684
2018-08-20 04:00:00+00:00,260.1614,17.99,13.05,47.84626,-54.09684
2018-08-20 04:10:00+00:00,268.1297,18.0,12.97,47.84626,-54.09684
2018-08-20 04:20:00+00:00,274.8598,18.0,13.05,47.84626,-54.09684
2018-08-20 04:30:00+00:00,274.8013,18.0,13.05,47.84626,-54.09684
2018-08-20 04:40:00+00:00,277.3081,17.9,13.05,47.84626,-54.09684
2018-08-20 04:50:00+00:00,283.8713,17.98,13.05,47.84626,-54.09684
2018-08-20 05:00:00+00:00,287.9598,18.0,13.05,47.84626,-54.09684
2018-08-20 05:10:00+00:00,285.6198,18.0,12.97,47.84626,-54.09684
2018-08-20 05:20:00+00:00,285.4898,18.0,13.05,47.84626,-54.09684
2018-08-20 05:30:00+00:00,292.8914,18.0,13.05,47.84626,-54.09684
2018-08-20 05:40:00+00:00,295.983,18.0,13.05,47.84626,-54.09684
2018-08-20 05:50:00+00:00,291.0764,18.0,13.05,47.84626,-54.09684
2018-08-20 06:00:00+00:00,293.3314,17.99,12.97,47.84626,-54.09684
2018-08-20 06:10:00+00:00,302.4863,17.99,12.89,47.84626,-54.09684
2018-08-20 06:20:00+00:00,302.6563,17.98,12.97,47.84626,-54.09684
2018-08-20 06:30:00+00:00,297.608,17.92,12.97,47.84626,-54.09684
2018-08-20 06:40:00+00:00,300.5181,17.9,13.05,47.84626,-54.09684
2018-08-20 06:50:00+00:00,305.6531,17.9,13.05,47.84626,-54.09684
2018-08-20 07:00:00+00:00,304.8947,17.9,12.97,47.84626,-54.09684
2018-08-20 07:10:00+00:00,304.1814,17.84,12.89,47.84626,-54.09684
2018-08-20 07:20:00+00:00,307.523,17.89,12.97,47.84626,-54.09684
2018-08-20 07:30:00+00:00,307.5897,17.9,12.97,47.84626,-54.09684
2018-08-20 07:40:00+00:00,304.783,17.8,12.97,47.84626,-54.09684
2018-08-20 07:50:00+00:00,304.0596,17.8,12.97,47.84626,-54.09684
2018-08-20 08:00:00+00:00,303.7446,17.87,12.97,47.84626,-54.09684
2018-08-20 08:10:00+00:00,302.5447,17.9,12.89,47.84626,-54.09684
2018-08-20 08:20:00+00:00,296.0013,17.9,12.97,47.84626,-54.09684
2018-08-20 08:30:00+00:00,288.9797,17.94,12.97,47.84626,-54.09684
2018-08-20 08:40:00+00:00,283.5114,17.97,12.97,47.84626,-54.09684
2018-08-20 08:50:00+00:00,279.1647,17.98,12.97,47.84626,-54.09684
2018-08-20 09:00:00+00:00,273.2614,17.97,12.97,47.84626,-54.09684
2018-08-20 09:10:00+00:00,264.2131,17.98,12.81,47.84626,-54.09684
2018-08-20 09:20:00+00:00,257.6631,17.98,12.89,47.84626,-54.09684
2018-08-20 09:30:00+00:00,254.8114,17.97,12.97,47.84626,-54.09684
2018-08-20 09:40:00+00:00,253.1981,17.97,12.97,47.84626,-54.09684
2018-08-20 09:50:00+00:00,248.4514,17.98,12.97,47.84626,-54.09684
2018-08-20 10:00:00+00:00,241.8864,18.0,12.89,47.84626,-54.09684
2018-08-20 10:10:00+00:00,237.0814,18.0,12.81,47.84626,-54.09684
2018-08-20 10:20:00+00:00,235.7098,17.99,12.97,47.84626,-54.09684
2018-08-20 10:30:00+00:00,231.8814,17.99,12.97,47.84626,-54.09684
2018-08-20 10:40:00+00:00,223.3998,18.0,12.97,47.84626,-54.09684
2018-08-20 10:50:00+00:00,218.7848,18.0,13.05,47.84626,-54.09684
2018-08-20 11:00:00+00:00,217.698,18.0,13.05,47.84626,-54.09684
2018-08-20 11:10:00+00:00,215.9731,17.99,12.97,47.84626,-54.09684
2018-08-20 11:20:00+00:00,215.7698,17.99,13.05,47.84626,-54.09684
2018-08-20 11:30:00+00:00,218.1531,17.97,13.13,47.84626,-54.09684
2018-08-20 11:40:00+00:00,218.1631,17.94,13.21,47.84626,-54.09684
2018-08-20 11:50:00+00:00,213.1465,17.96,13.29,47.84626,-54.09684
2018-08-20 12:00:00+00:00,212.5847,17.94,13.37,47.84626,-54.09684
2018-08-20 12:10:00+00:00,216.2665,17.9,13.29,47.84626,-54.09684
2018-08-20 12:20:00+00:00,213.8014,17.9,13.53,47.84626,-54.09684
2018-08-20 12:30:00+00:00,211.0498,17.9,13.6,47.84626,-54.09684
2018-08-20 12:40:00+00:00,213.6281,17.9,13.68,47.84626,-54.09684
2018-08-20 12:50:00+00:00,215.9847,17.9,13.76,47.84626,-54.09684
2018-08-20 13:00:00+00:00,217.0081,17.82,13.76,47.84626,-54.09684
2018-08-20 13:10:00+00:00,219.2831,17.8,13.76,47.84626,-54.09684
2018-08-20 13:20:00+00:00,221.2948,17.84,14.0,47.84626,-54.09684
2018-08-20 13:30:00+00:00,221.1913,17.8,14.32,47.84626,-54.09684
2018-08-20 13:40:00+00:00,222.6463,17.8,15.99,47.84626,-54.09684
2018-08-20 13:50:00+00:00,223.6631,17.81,15.67,47.84626,-54.09684
2018-08-20 14:00:00+00:00,220.9848,17.83,15.04,47.84626,-54.09684
2018-08-20 14:10:00+00:00,222.7314,17.84,14.64,47.84626,-54.09684
2018-08-20 14:20:00+00:00,228.6631,17.81,14.96,47.84626,-54.09684
2018-08-20 14:30:00+00:00,227.5547,17.85,14.72,47.84626,-54.09684
2018-08-20 14:40:00+00:00,225.0066,17.85,14.72,47.84626,-54.09684
2018-08-20 14:50:00+00:00,230.7248,17.8,14.64,47.84626,-54.09684
2018-08-20 15:00:00+00:00,237.8331,17.8,14.56,47.84626,-54.09684
2018-08-20 15:10:00+00:00,237.9748,17.8,14.56,47.84626,-54.09684
2018-08-20 15:20:00+00:00,237.9315,17.8,14.64,47.84626,-54.09684
2018-08-20 15:30:00+00:00,241.0581,17.8,14.56,47.84626,-54.09684
2018-08-20 15:40:00+00:00,245.3731,17.8,14.56,47.84626,-54.09684
2018-08-20 15:50:00+00:00,248.0697,17.8,14.56,47.84626,-54.09684
2018-08-20 16:00:00+00:00,250.4031,17.8,14.48,47.84626,-54.09684
2018-08-20 16:10:00+00:00,257.5164,17.8,14.4,47.84626,-54.09684
2018-08-20 16:20:00+00:00,267.6131,17.8,14.56,47.84626,-54.09684
2018-08-20 16:30:00+00:00,273.1764,17.8,14.48,47.84626,-54.09684
2018-08-20 16:40:00+00:00,273.0048,17.8,14.48,47.84626,-54.09684
2018-08-20 16:50:00+00:00,275.613,17.8,14.48,47.84626,-54.09684
2018-08-20 17:00:00+00:00,286.2413,17.8,14.4,47.84626,-54.09684
2018-08-20 17:10:00+00:00,293.4148,17.8,14.32,47.84626,-54.09684
2018-08-20 17:20:00+00:00,290.623,17.66,14.4,47.84626,-54.09684
2018-08-20 17:30:00+00:00,290.663,17.69,14.4,47.84626,-54.09684
2018-08-20 17:40:00+00:00,300.3781,17.4,14.4,47.84626,-54.09684
2018-08-20 17:50:00+00:00,305.293,17.74,14.32,47.84626,-54.09684
2018-08-20 18:00:00+00:00,301.7863,17.8,14.24,47.84626,-54.09684
2018-08-20 18:10:00+00:00,304.7814,17.03,14.16,47.84626,-54.09684
2018-08-20 18:20:00+00:00,312.5146,16.95,14.24,47.84626,-54.09684
2018-08-20 18:30:00+00:00,313.1714,17.54,14.24,47.84626,-54.09684
2018-08-20 18:40:00+00:00,310.2946,17.7,14.24,47.84626,-54.09684
2018-08-20 18:50:00+00:00,313.8146,17.2,14.24,47.84626,-54.09684
2018-08-20 19:00:00+00:00,317.7781,17.2,14.08,47.84626,-54.09684
2018-08-20 19:10:00+00:00,320.6495,17.4,14.0,47.84626,-54.09684
2018-08-20 19:20:00+00:00,321.8063,17.38,14.08,47.84626,-54.09684
2018-08-20 19:30:00+00:00,323.5763,17.3,14.08,47.84626,-54.09684
2018-08-20 19:40:00+00:00,320.9097,17.4,14.08,47.84626,-54.09684
2018-08-20 19:50:00+00:00,318.5847,17.5,14.08,47.84626,-54.09684
2018-08-20 20:00:00+00:00,319.0964,17.4,14.0,47.84626,-54.09684
2018-08-20 20:10:00+00:00,317.0363,17.4,13.92,47.84626,-54.09684
2018-08-20 20:20:00+00:00,313.9447,17.5,14.0,47.84626,-54.09684
2018-08-20 20:30:00+00:00,312.5464,17.52,14.0,47.84626,-54.09684
2018-08-20 20:40:00+00:00,310.7814,17.53,14.0,47.84626,-54.09684
2018-08-20 20:50:00+00:00,307.1264,17.59,13.92,47.84626,-54.09684
2018-08-20 21:00:00+00:00,301.1497,17.6,13.92,47.84626,-54.09684
2018-08-20 21:10:00+00:00,299.0664,17.6,13.76,47.84626,-54.09684
2018-08-20 21:20:00+00:00,295.298,17.6,13.76,47.84626,-54.09684
2018-08-20 21:30:00+00:00,289.4514,17.6,13.76,47.84626,-54.09684
2018-08-20 21:40:00+00:00,283.248,17.68,13.68,47.84626,-54.09684
2018-08-20 21:50:00+00:00,280.0914,17.6,13.68,47.84626,-54.09684
2018-08-20 22:00:00+00:00,274.4797,17.6,13.6,47.84626,-54.09684
2018-08-20 22:10:00+00:00,267.9814,17.7,13.44,47.84626,-54.09684
2018-08-20 22:20:00+00:00,265.2514,17.6,13.44,47.84626,-54.09684
2018-08-20 22:30:00+00:00,263.718,17.5,13.37,47.84626,-54.09684
2018-08-20 22:40:00+00:00,259.423,17.6,13.37,47.84626,-54.09684
2018-08-20 22:50:00+00:00,253.0464,17.65,13.37,47.84626,-54.09684
2018-08-20 23:00:00+00:00,249.0981,17.6,13.29,47.84626,-54.09684
2018-08-20 23:10:00+00:00,248.6114,17.3,13.13,47.84626,-54.09684
2018-08-20 23:20:00+00:00,247.3398,17.2,13.21,47.84626,-54.09684
2018-08-20 23:30:00+00:00,243.9181,17.38,13.13,47.84626,-54.09684
2018-08-20 23:40:00+00:00,241.3497,17.4,13.13,47.84626,-54.09684
2018-08-20 23:50:00+00:00,237.6581,17.39,13.21,47.84626,-54.09684
